| time (UTC) | temp F | wind direction | speed MPH | gust MPH | rain 1hr in | rain 24hr in | rain mn in | humidity % | barometer mb |
| 20260901190545 | 71 | 173 | 4.0 | 9.0 | 0.00 | 0.00 | 0.00 | 66 | 1016.8 |
| 20260901190048 | 71 | 166 | 5.0 | 10.0 | 0.00 | 0.00 | 0.00 | 68 | 1016.7 |
| 20260901190044 | 71 | 234 | 5.0 | 8.0 | 0.00 | 0.00 | 0.00 | 65 | 1016.7 |
| 20260901185045 | 70 | 150 | 6.0 | 10.0 | 0.00 | 0.00 | 0.00 | 60 | 1016.7 |
| 20260901184544 | 70 | 180 | 6.0 | 10.0 | 0.00 | 0.00 | 0.00 | 63 | 1016.7 |
| 20260901184045 | 70 | 169 | 5.0 | 10.0 | 0.00 | 0.00 | 0.00 | 64 | 1016.6 |
| 20260901183545 | 69 | 163 | 5.0 | 9.0 | 0.00 | 0.00 | 0.00 | 59 | 1016.7 |
| 20260901183045 | 70 | 183 | 5.0 | 9.0 | 0.00 | 0.00 | 0.00 | 72 | 1016.8 |
| 20260901182544 | 70 | 149 | 4.0 | 9.0 | 0.00 | 0.00 | 0.00 | 67 | 1016.8 |
| 20260901182049 | 70 | 153 | 4.0 | 9.0 | 0.00 | 0.00 | 0.00 | 63 | 1016.7 |
| 20260901182045 | 71 | 175 | 5.0 | 9.0 | 0.00 | 0.00 | 0.00 | 71 | 1016.7 |
| 20260901181050 | 70 | 165 | 5.0 | 10.0 | 0.00 | 0.00 | 0.00 | 66 | 1016.7 |
| 20260901181045 | 70 | 138 | 5.0 | 9.0 | 0.00 | 0.00 | 0.00 | 66 | 1016.7 |
| 20260901180045 | 70 | 142 | 6.0 | 10.0 | 0.00 | 0.00 | 0.00 | 67 | 1016.6 |
| 20260901175545 | 69 | 148 | 4.0 | 9.0 | 0.00 | 0.00 | 0.00 | 69 | 1016.6 |
| 20260901175050 | 70 | 101 | 2.0 | 7.0 | 0.00 | 0.00 | 0.00 | 69 | 1016.5 |
| 20260901175046 | 70 | 130 | 3.0 | 8.0 | 0.00 | 0.00 | 0.00 | 68 | 1016.6 |
| 20260901174044 | 70 | 124 | 3.0 | 7.0 | 0.00 | 0.00 | 0.00 | 67 | 1016.5 |
| 20260901173547 | 69 | 139 | 2.0 | 7.0 | 0.00 | 0.00 | 0.00 | 70 | 1016.4 |
| 20260901173543 | 69 | 170 | 3.0 | 7.0 | 0.00 | 0.00 | 0.00 | 69 | 1016.5 |
| 20260901172542 | 69 | 134 | 3.0 | 6.0 | 0.00 | 0.00 | 0.00 | 71 | 1016.5 |
| 20260901172042 | 69 | 163 | 3.0 | 6.0 | 0.00 | 0.00 | 0.00 | 74 | 1016.4 |
| 20260901171542 | 69 | 146 | 2.0 | 5.0 | 0.00 | 0.00 | 0.00 | 73 | 1016.3 |
| 20260901171042 | 68 | 128 | 2.0 | 6.0 | 0.00 | 0.00 | 0.00 | 72 | 1016.4 |
| 20260901170542 | 67 | 88 | 2.0 | 6.0 | 0.00 | 0.00 | 0.00 | 76 | 1016.4 |
| 20260901170042 | 67 | 134 | 2.0 | 5.0 | 0.00 | 0.00 | 0.00 | 78 | 1016.4 |
| 20260901165542 | 66 | 136 | 2.0 | 6.0 | 0.00 | 0.00 | 0.00 | 79 | 1016.4 |
| 20260901165042 | 66 | 121 | 3.0 | 6.0 | 0.00 | 0.00 | 0.00 | 80 | 1016.3 |
| 20260901164541 | 65 | 151 | 3.0 | 6.0 | 0.00 | 0.00 | 0.00 | 79 | 1016.3 |
| 20260901164042 | 65 | 160 | 3.0 | 7.0 | 0.00 | 0.00 | 0.00 | 79 | 1016.2 |
| 20260901163542 | 65 | 155 | 4.0 | 9.0 | 0.00 | 0.00 | 0.00 | 78 | 1016.0 |
| 20260901163042 | 65 | 158 | 6.0 | 10.0 | 0.00 | 0.00 | 0.00 | 78 | 1016.0 |
| 20260901162546 | 65 | 133 | 4.0 | 10.0 | 0.00 | 0.00 | 0.00 | 76 | 1015.9 |
| 20260901162542 | 65 | 121 | 6.0 | 10.0 | 0.00 | 0.00 | 0.00 | 77 | 1015.9 |
| 20260901162149 | 65 | 128 | 4.0 | 9.0 | 0.00 | 0.00 | 0.00 | 76 | 1015.8 |
| 20260901161042 | 64 | 114 | 5.0 | 9.0 | 0.00 | 0.00 | 0.00 | 77 | 1015.9 |
| 20260901160542 | 64 | 121 | 4.0 | 9.0 | 0.00 | 0.00 | 0.00 | 75 | 1015.9 |
| 20260901160039 | 63 | 137 | 4.0 | 9.0 | 0.00 | 0.00 | 0.00 | 73 | 1015.9 |
| 20260901155538 | 63 | 143 | 3.0 | 8.0 | 0.00 | 0.00 | 0.00 | 79 | 1015.9 |
| 20260901155038 | 62 | 132 | 3.0 | 8.0 | 0.00 | 0.00 | 0.00 | 78 | 1015.8 |
| 20260901154538 | 62 | 150 | 3.0 | 8.0 | 0.00 | 0.00 | 0.00 | 81 | 1015.8 |
| 20260901154038 | 62 | 118 | 3.0 | 7.0 | 0.00 | 0.00 | 0.00 | 80 | 1015.8 |
| 20260901153538 | 62 | 194 | 4.0 | 7.0 | 0.00 | 0.00 | 0.00 | 83 | 1015.8 |
| 20260901153036 | 63 | 172 | 4.0 | 7.0 | 0.00 | 0.00 | 0.00 | 81 | 1015.8 |
| 20260901152537 | 63 | 162 | 3.0 | 7.0 | 0.00 | 0.00 | 0.00 | 77 | 1015.7 |
| 20260901152036 | 64 | 159 | 3.0 | 8.0 | 0.00 | 0.00 | 0.00 | 69 | 1015.8 |
| 20260901151536 | 64 | 162 | 4.0 | 9.0 | 0.00 | 0.00 | 0.00 | 71 | 1015.6 |
| 20260901151042 | 64 | 168 | 4.0 | 13.0 | 0.00 | 0.00 | 0.00 | 66 | 1015.6 |
| 20260901151037 | 63 | 149 | 4.0 | 9.0 | 0.00 | 0.00 | 0.00 | 67 | 1015.5 |
| 20260901150644 | 64 | 163 | 7.0 | 13.0 | 0.00 | 0.00 | 0.00 | 66 | 1015.4 |
| 20260901145537 | 64 | 103 | 9.0 | 13.0 | 0.00 | 0.00 | 0.00 | 66 | 1015.3 |
| 20260901145036 | 64 | 120 | 9.0 | 13.0 | 0.00 | 0.00 | 0.00 | 64 | 1015.3 |
| 20260901144536 | 64 | 114 | 9.0 | 13.0 | 0.00 | 0.00 | 0.00 | 68 | 1015.3 |
| 20260901144036 | 63 | 113 | 8.0 | 13.0 | 0.00 | 0.00 | 0.00 | 68 | 1015.2 |
| 20260901143536 | 62 | 109 | 6.0 | 11.0 | 0.00 | 0.00 | 0.00 | 70 | 1015.2 |
| 20260901143041 | 63 | 142 | 8.0 | 12.0 | 0.00 | 0.00 | 0.00 | 69 | 1015.2 |
| 20260901143036 | 63 | 139 | 6.0 | 10.0 | 0.00 | 0.00 | 0.00 | 73 | 1015.3 |
| 20260901142036 | 64 | 113 | 9.0 | 12.0 | 0.00 | 0.00 | 0.00 | 65 | 1015.1 |
| 20260901141534 | 65 | 119 | 9.0 | 12.0 | 0.00 | 0.00 | 0.00 | 59 | 1015.0 |
| 20260901141034 | 65 | 113 | 8.0 | 12.0 | 0.00 | 0.00 | 0.00 | 60 | 1015.1 |
| 20260901140534 | 66 | 111 | 9.0 | 12.0 | 0.00 | 0.00 | 0.00 | 55 | 1015.0 |
| 20260901140033 | 66 | 106 | 9.0 | 12.0 | 0.00 | 0.00 | 0.00 | 54 | 1014.9 |
| 20260901135534 | 66 | 103 | 9.0 | 12.0 | 0.00 | 0.00 | 0.00 | 45 | 1014.8 |
| 20260901135034 | 65 | 100 | 9.0 | 12.0 | 0.00 | 0.00 | 0.00 | 41 | 1014.9 |
| 20260901134539 | 64 | 94 | 10.0 | 12.0 | 0.00 | 0.00 | 0.00 | 54 | 1014.6 |
| 20260901134534 | 65 | 98 | 9.0 | 12.0 | 0.00 | 0.00 | 0.00 | 48 | 1014.8 |
| 20260901134137 | 65 | 85 | 9.0 | 12.0 | 0.00 | 0.00 | 0.00 | 55 | 1014.6 |
| 20260901133032 | 64 | 86 | 10.0 | 12.0 | 0.00 | 0.00 | 0.00 | 53 | 1014.6 |
| 20260901132532 | 64 | 93 | 9.0 | 11.0 | 0.00 | 0.00 | 0.00 | 53 | 1014.8 |
| 20260901132032 | 64 | 103 | 9.0 | 11.0 | 0.00 | 0.00 | 0.00 | 57 | 1014.8 |
| 20260901131532 | 64 | 105 | 9.0 | 11.0 | 0.00 | 0.00 | 0.00 | 61 | 1014.8 |
| 20260901131032 | 64 | 108 | 9.0 | 11.0 | 0.00 | 0.00 | 0.00 | 51 | 1014.6 |
| 20260901130532 | 64 | 106 | 10.0 | 11.0 | 0.00 | 0.00 | 0.00 | 52 | 1014.6 |
| 20260901130032 | 65 | 107 | 9.0 | 11.0 | 0.00 | 0.00 | 0.00 | 42 | 1014.8 |
| 20260901125530 | 65 | 105 | 9.0 | 11.0 | 0.00 | 0.00 | 0.00 | 37 | 1014.6 |
| 20260901125033 | 65 | 106 | 10.0 | 12.0 | 0.00 | 0.00 | 0.00 | 36 | 1014.5 |
| 20260901125029 | 65 | 108 | 10.0 | 11.0 | 0.00 | 0.00 | 0.00 | 36 | 1014.5 |
| 20260901124030 | 65 | 103 | 10.0 | 12.0 | 0.00 | 0.00 | 0.00 | 36 | 1014.5 |
| 20260901123531 | 65 | 113 | 10.0 | 12.0 | 0.00 | 0.00 | 0.00 | 31 | 1014.5 |
| 20260901123032 | 65 | 113 | 10.0 | 12.0 | 0.00 | 0.00 | 0.00 | 30 | 1014.4 |
| 20260901122530 | 65 | 111 | 10.0 | 12.0 | 0.00 | 0.00 | 0.00 | 31 | 1014.4 |
| 20260901122030 | 65 | 115 | 9.0 | 11.0 | 0.00 | 0.00 | 0.00 | 31 | 1014.5 |
| 20260901121530 | 65 | 131 | 9.0 | 11.0 | 0.00 | 0.00 | 0.00 | 33 | 1014.4 |
| 20260901121138 | 64 | 146 | 6.0 | 10.0 | 0.00 | 0.00 | 0.00 | 26 | 1014.4 |
| 20260901121033 | 65 | 130 | 8.0 | 11.0 | 0.00 | 0.00 | 0.00 | 23 | 1014.4 |
| 20260901121029 | 65 | 132 | 9.0 | 11.0 | 0.00 | 0.00 | 0.00 | 30 | 1014.3 |
| 20260901120136 | 64 | 155 | 7.0 | 10.0 | 0.00 | 0.00 | 0.00 | 31 | 1014.4 |
| 20260901115029 | 64 | 162 | 7.0 | 9.0 | 0.00 | 0.00 | 0.00 | 30 | 1014.4 |
| 20260901114530 | 64 | 168 | 7.0 | 10.0 | 0.00 | 0.00 | 0.00 | 34 | 1014.4 |
| 20260901114030 | 64 | 173 | 7.0 | 10.0 | 0.00 | 0.00 | 0.00 | 30 | 1014.4 |
| 20260901113530 | 64 | 173 | 8.0 | 12.0 | 0.00 | 0.00 | 0.00 | 38 | 1014.5 |
| 20260901113030 | 65 | 161 | 8.0 | 12.0 | 0.00 | 0.00 | 0.00 | 30 | 1014.5 |
| 20260901112527 | 65 | 167 | 9.0 | 14.0 | 0.00 | 0.00 | 0.00 | 28 | 1014.5 |
| 20260901112028 | 65 | 149 | 9.0 | 14.0 | 0.00 | 0.00 | 0.00 | 17 | 1014.4 |
| 20260901111530 | 65 | 140 | 7.0 | 12.0 | 0.00 | 0.00 | 0.00 | 19 | 1014.4 |
| 20260901111526 | 66 | 157 | 8.0 | 11.0 | 0.00 | 0.00 | 0.00 | 24 | 1014.5 |
| 20260901110526 | 66 | 157 | 9.0 | 12.0 | 0.00 | 0.00 | 0.00 | 17 | 1014.5 |
| 20260901110025 | 66 | 142 | 9.0 | 12.0 | 0.00 | 0.00 | 0.00 | 19 | 1014.5 |
| 20260901105528 | 66 | 142 | 10.0 | 13.0 | 0.00 | 0.00 | 0.00 | 17 | 1014.5 |
| 20260901105524 | 66 | 146 | 9.0 | 13.0 | 0.00 | 0.00 | 0.00 | 20 | 1014.5 |
| 20260901104522 | 67 | 138 | 11.0 | 13.0 | 0.00 | 0.00 | 0.00 | 14 | 1014.5 |
| 20260901104023 | 66 | 130 | 9.0 | 13.0 | 0.00 | 0.00 | 0.00 | 12 | 1014.5 |
| 20260901103526 | 66 | 129 | 8.0 | 10.0 | 0.00 | 0.00 | 0.00 | 22 | 1014.6 |
| 20260901103522 | 66 | 134 | 7.0 | 10.0 | 0.00 | 0.00 | 0.00 | 13 | 1014.5 |
| 20260901102522 | 66 | 136 | 9.0 | 10.0 | 0.00 | 0.00 | 0.00 | 14 | 1014.6 |
| 20260901102022 | 65 | 132 | 7.0 | 10.0 | 0.00 | 0.00 | 0.00 | 14 | 1014.6 |
| 20260901101523 | 65 | 132 | 6.0 | 10.0 | 0.00 | 0.00 | 0.00 | 19 | 1014.6 |
| 20260901101022 | 64 | 136 | 7.0 | 10.0 | 0.00 | 0.00 | 0.00 | 32 | 1014.8 |
| 20260901100526 | 63 | 140 | 8.0 | 11.0 | 0.00 | 0.00 | 0.00 | 39 | 1014.8 |
| 20260901100522 | 64 | 138 | 8.0 | 11.0 | 0.00 | 0.00 | 0.00 | 34 | 1014.8 |
| 20260901095522 | 63 | 126 | 8.0 | 13.0 | 0.00 | 0.00 | 0.00 | 50 | 1014.8 |
| 20260901095131 | 63 | 140 | 9.0 | 12.0 | 0.00 | 0.00 | 0.00 | 56 | 1014.8 |
| 20260901095022 | 63 | 148 | 9.0 | 13.0 | 0.00 | 0.00 | 0.00 | 53 | 1014.8 |
| 20260901094526 | 63 | 140 | 7.0 | 12.0 | 0.00 | 0.00 | 0.00 | 59 | 1014.6 |
| 20260901094522 | 63 | 145 | 7.0 | 12.0 | 0.00 | 0.00 | 0.00 | 57 | 1014.8 |
| 20260901093022 | 64 | 138 | 9.0 | 12.0 | 0.00 | 0.00 | 0.00 | 55 | 1014.9 |
| 20260901092522 | 64 | 139 | 9.0 | 14.0 | 0.00 | 0.00 | 0.00 | 50 | 1014.6 |
| 20260901092022 | 65 | 130 | 9.0 | 14.0 | 0.00 | 0.00 | 0.00 | 47 | 1014.6 |
| 20260901091522 | 65 | 119 | 10.0 | 14.0 | 0.00 | 0.00 | 0.00 | 47 | 1014.6 |
| 20260901091026 | 66 | 123 | 10.0 | 14.0 | 0.00 | 0.00 | 0.00 | 34 | 1014.8 |
| 20260901091022 | 66 | 121 | 10.0 | 14.0 | 0.00 | 0.00 | 0.00 | 36 | 1014.6 |
| 20260901090027 | 66 | 119 | 10.0 | 13.0 | 0.00 | 0.00 | 0.00 | 35 | 1014.8 |
| 20260901085522 | 66 | 116 | 10.0 | 12.0 | 0.00 | 0.00 | 0.00 | 31 | 1015.0 |
| 20260901085022 | 67 | 121 | 8.0 | 12.0 | 0.00 | 0.00 | 0.00 | 32 | 1014.9 |
| 20260901084522 | 67 | 125 | 6.0 | 11.0 | 0.00 | 0.00 | 0.00 | 26 | 1015.0 |
| 20260901084026 | 67 | 128 | 6.0 | 10.0 | 0.00 | 0.00 | 0.00 | 17 | 1015.0 |
| 20260901084022 | 67 | 130 | 7.0 | 10.0 | 0.00 | 0.00 | 0.00 | 20 | 1015.0 |
| 20260901083630 | 67 | 130 | 7.0 | 10.0 | 0.00 | 0.00 | 0.00 | 22 | 1014.9 |
| 20260901082519 | 67 | 128 | 7.0 | 10.0 | 0.00 | 0.00 | 0.00 | 21 | 1015.0 |
| 20260901082019 | 66 | 132 | 7.0 | 11.0 | 0.00 | 0.00 | 0.00 | 17 | 1014.9 |
| 20260901081519 | 66 | 122 | 8.0 | 11.0 | 0.00 | 0.00 | 0.00 | 26 | 1015.0 |
| 20260901081019 | 66 | 121 | 7.0 | 10.0 | 0.00 | 0.00 | 0.00 | 20 | 1015.1 |
| 20260901080519 | 66 | 128 | 7.0 | 10.0 | 0.00 | 0.00 | 0.00 | 23 | 1015.0 |
| 20260901080019 | 66 | 115 | 9.0 | 11.0 | 0.00 | 0.00 | 0.00 | 23 | 1015.1 |
| 20260901075520 | 66 | 121 | 8.0 | 11.0 | 0.00 | 0.00 | 0.00 | 24 | 1015.0 |
| 20260901075025 | 67 | 106 | 6.0 | 11.0 | 0.00 | 0.00 | 0.00 | 25 | 1015.1 |
| 20260901075020 | 67 | 115 | 7.0 | 9.0 | 0.00 | 0.00 | 0.00 | 24 | 1015.1 |
| 20260901074018 | 67 | 111 | 5.0 | 11.0 | 0.00 | 0.00 | 0.00 | 23 | 1015.2 |
| 20260901073517 | 67 | 123 | 7.0 | 11.0 | 0.00 | 0.00 | 0.00 | 24 | 1015.2 |
| 20260901073018 | 67 | 126 | 9.0 | 11.0 | 0.00 | 0.00 | 0.00 | 25 | 1015.2 |
| 20260901072517 | 67 | 117 | 8.0 | 11.0 | 0.00 | 0.00 | 0.00 | 28 | 1015.2 |
| 20260901072017 | 67 | 103 | 6.0 | 10.0 | 0.00 | 0.00 | 0.00 | 39 | 1015.2 |
| 20260901071516 | 67 | 94 | 5.0 | 8.0 | 0.00 | 0.00 | 0.00 | 47 | 1015.1 |
| 20260901071016 | 67 | 90 | 5.0 | 8.0 | 0.00 | 0.00 | 0.00 | 53 | 1015.1 |
| 20260901070515 | 68 | 93 | 7.0 | 9.0 | 0.00 | 0.00 | 0.00 | 55 | 1015.1 |
| 20260901070017 | 68 | 95 | 7.0 | 9.0 | 0.00 | 0.00 | 0.00 | 54 | 1015.1 |
| 20260901070013 | 68 | 92 | 6.0 | 8.0 | 0.00 | 0.00 | 0.00 | 54 | 1015.1 |
| 20260901065013 | 68 | 101 | 5.0 | 8.0 | 0.00 | 0.00 | 0.00 | 46 | 1015.0 |
| 20260901064511 | 68 | 105 | 5.0 | 8.0 | 0.00 | 0.00 | 0.00 | 48 | 1015.0 |
| 20260901064012 | 69 | 110 | 6.0 | 9.0 | 0.00 | 0.00 | 0.00 | 43 | 1015.0 |
| 20260901063512 | 68 | 107 | 6.0 | 8.0 | 0.00 | 0.00 | 0.00 | 40 | 1014.9 |
| 20260901063508 | 69 | 109 | 6.0 | 9.0 | 0.00 | 0.00 | 0.00 | 41 | 1014.9 |
| 20260901062509 | 69 | 105 | 7.0 | 9.0 | 0.00 | 0.00 | 0.00 | 44 | 1014.9 |
| 20260901062007 | 69 | 104 | 6.0 | 9.0 | 0.00 | 0.00 | 0.00 | 42 | 1014.9 |
| 20260901061507 | 69 | 101 | 4.0 | 9.0 | 0.00 | 0.00 | 0.00 | 38 | 1014.8 |
| 20260901061006 | 69 | 112 | 4.0 | 7.0 | 0.00 | 0.00 | 0.00 | 39 | 1014.8 |
| 20260901060509 | 70 | 134 | 4.0 | 7.0 | 0.00 | 0.00 | 0.00 | 29 | 1014.8 |
| 20260901060505 | 70 | 150 | 5.0 | 7.0 | 0.00 | 0.00 | 0.00 | 27 | 1014.9 |
| 20260901055502 | 71 | 156 | 5.0 | 7.0 | 0.00 | 0.00 | 0.00 | 26 | 1014.8 |
| 20260901055007 | 73 | 159 | 7.0 | 9.0 | 0.00 | 0.00 | 0.00 | 9 | 1014.6 |
| 20260901055002 | 72 | 159 | 6.0 | 9.0 | 0.00 | 0.00 | 0.00 | 24 | 1014.8 |
| 20260901054003 | 73 | 192 | 7.0 | 10.0 | 0.00 | 0.00 | 0.00 | 1 | 1014.6 |
| 20260901053506 | 72 | 190 | 6.0 | 8.0 | 0.00 | 0.00 | 0.00 | 1 | 1014.6 |
| 20260901053502 | 72 | 184 | 7.0 | 10.0 | 0.00 | 0.00 | 0.00 | 2 | 1014.5 |
| 20260901052503 | 71 | 194 | 5.0 | 7.0 | 0.00 | 0.00 | 0.00 | 2 | 1014.6 |
| 20260901052004 | 71 | 164 | 4.0 | 5.0 | 0.00 | 0.00 | 0.00 | 4 | 1014.8 |
| 20260901051503 | 71 | 158 | 3.0 | 6.0 | 0.00 | 0.00 | 0.00 | 5 | 1014.8 |
| 20260901051002 | 72 | 152 | 4.0 | 6.0 | 0.00 | 0.00 | 0.00 | 14 | 1014.8 |
| 20260901050502 | 72 | 167 | 3.0 | 5.0 | 0.00 | 0.00 | 0.00 | 6 | 1014.6 |
| 20260901050003 | 72 | 180 | 4.0 | 6.0 | 0.00 | 0.00 | 0.00 | 3 | 1014.6 |
| 20260901045507 | 72 | 175 | 6.0 | 7.0 | 0.00 | 0.00 | 0.00 | 6 | 1014.6 |
| 20260901045503 | 72 | 178 | 4.0 | 7.0 | 0.00 | 0.00 | 0.00 | 5 | 1014.6 |
| 20260901045111 | 72 | 188 | 7.0 | 7.0 | 0.00 | 0.00 | 0.00 | 2 | 1014.6 |
| 20260901044002 | 73 | 188 | 7.0 | 9.0 | 0.00 | 0.00 | 0.00 | 2 | 1014.6 |
| 20260901043502 | 73 | 188 | 7.0 | 9.0 | 0.00 | 0.00 | 0.00 | 1 | 1014.6 |
| 20260901043003 | 73 | 201 | 7.0 | 9.0 | 0.00 | 0.00 | 0.00 | 1 | 1014.5 |
| 20260901042503 | 74 | 221 | 7.0 | 9.0 | 0.00 | 0.00 | 0.00 | 1 | 1014.4 |
| 20260901042007 | 74 | 211 | 7.0 | 9.0 | 0.00 | 0.00 | 0.00 | 1 | 1014.3 |
| 20260901042003 | 74 | 215 | 7.0 | 9.0 | 0.00 | 0.00 | 0.00 | 1 | 1014.4 |
| 20260901041002 | 74 | 216 | 7.0 | 9.0 | 0.00 | 0.00 | 0.00 | 1 | 1014.3 |
| 20260901040502 | 74 | 210 | 7.0 | 9.0 | 0.00 | 0.00 | 0.00 | 1 | 1014.3 |
| 20260901040003 | 73 | 211 | 6.0 | 8.0 | 0.00 | 0.00 | 0.00 | 1 | 1014.2 |
| 20260901035502 | 73 | 215 | 6.0 | 7.0 | 0.00 | 0.00 | 0.00 | 1 | 1014.1 |
| 20260901035002 | 73 | 225 | 6.0 | 7.0 | 0.00 | 0.00 | 0.00 | 1 | 1014.1 |
| 20260901034502 | 73 | 221 | 6.0 | 7.0 | 0.00 | 0.00 | 0.00 | 1 | 1014.1 |
| 20260901034003 | 73 | 214 | 6.0 | 7.0 | 0.00 | 0.00 | 0.00 | 1 | 1014.1 |
| 20260901033508 | 73 | 219 | 5.0 | 7.0 | 0.00 | 0.00 | 0.00 | 3 | 1013.8 |
| 20260901033502 | 73 | 219 | 6.0 | 7.0 | 0.00 | 0.00 | 0.00 | 1 | 1013.9 |
| 20260901032502 | 73 | 213 | 6.0 | 7.0 | 0.00 | 0.00 | 0.00 | 8 | 1013.9 |
| 20260901032006 | 73 | 205 | 6.0 | 8.0 | 0.00 | 0.00 | 0.00 | 6 | 1013.9 |
| 20260901032002 | 73 | 211 | 6.0 | 8.0 | 0.00 | 0.00 | 0.00 | 7 | 1013.9 |
| 20260901031003 | 73 | 213 | 6.0 | 7.0 | 0.00 | 0.00 | 0.00 | 5 | 1013.8 |
| 20260901030502 | 74 | 224 | 5.0 | 7.0 | 0.00 | 0.00 | 0.00 | 4 | 1013.8 |
| 20260901030002 | 74 | 227 | 5.0 | 8.0 | 0.00 | 0.00 | 0.00 | 4 | 1013.8 |
| 20260901025502 | 73 | 238 | 6.0 | 9.0 | 0.00 | 0.00 | 0.00 | 2 | 1013.8 |
| 20260901025006 | 73 | 248 | 7.0 | 10.0 | 0.00 | 0.00 | 0.00 | 4 | 1013.7 |
| 20260901025002 | 73 | 261 | 6.0 | 9.0 | 0.00 | 0.00 | 0.00 | 2 | 1013.7 |
| 20260901024002 | 73 | 228 | 8.0 | 10.0 | 0.00 | 0.00 | 0.00 | 3 | 1013.7 |
| 20260901023506 | 73 | 252 | 8.0 | 11.0 | 0.00 | 0.00 | 0.00 | 10 | 1013.8 |
| 20260901023502 | 73 | 252 | 8.0 | 11.0 | 0.00 | 0.00 | 0.00 | 5 | 1013.7 |
| 20260901023111 | 72 | 241 | 8.0 | 11.0 | 0.00 | 0.00 | 0.00 | 10 | 1013.7 |
| 20260901022002 | 72 | 229 | 7.0 | 11.0 | 0.00 | 0.00 | 0.00 | 10 | 1013.7 |
| 20260901021507 | 72 | 223 | 7.0 | 9.0 | 0.00 | 0.00 | 0.00 | 16 | 1013.7 |
| 20260901021502 | 72 | 230 | 7.0 | 8.0 | 0.00 | 0.00 | 0.00 | 13 | 1013.7 |
| 20260901021110 | 73 | 221 | 7.0 | 10.0 | 0.00 | 0.00 | 0.00 | 18 | 1013.7 |
| 20260901020609 | 73 | 215 | 7.0 | 10.0 | 0.00 | 0.00 | 0.00 | 16 | 1013.7 |
| 20260901015502 | 73 | 219 | 8.0 | 10.0 | 0.00 | 0.00 | 0.00 | 28 | 1013.7 |
| 20260901015002 | 73 | 204 | 8.0 | 10.0 | 0.00 | 0.00 | 0.00 | 21 | 1013.7 |
| 20260901014500 | 73 | 197 | 8.0 | 11.0 | 0.00 | 0.00 | 0.00 | 24 | 1013.7 |
| 20260901014000 | 73 | 202 | 7.0 | 11.0 | 0.00 | 0.00 | 0.00 | 17 | 1013.7 |
| 20260901013500 | 73 | 219 | 7.0 | 10.0 | 0.00 | 0.00 | 0.00 | 24 | 1013.7 |
| 20260901013000 | 73 | 205 | 7.0 | 10.0 | 0.00 | 0.00 | 0.00 | 18 | 1013.7 |
| 20260901012459 | 73 | 203 | 7.0 | 10.0 | 0.00 | 0.00 | 0.00 | 28 | 1013.7 |
| 20260901012000 | 73 | 199 | 8.0 | 10.0 | 0.00 | 0.00 | 0.00 | 31 | 1013.7 |
| 20260901011500 | 73 | 202 | 8.0 | 10.0 | 0.00 | 0.00 | 0.00 | 29 | 1013.7 |
| 20260901011001 | 73 | 197 | 7.0 | 10.0 | 0.00 | 0.00 | 0.00 | 32 | 1013.7 |
| 20260901010501 | 73 | 200 | 7.0 | 9.0 | 0.00 | 0.00 | 0.00 | 39 | 1013.8 |
| 20260901005959 | 73 | 224 | 7.0 | 10.0 | 0.00 | 0.00 | 0.00 | 41 | 1013.8 |
| 20260901005500 | 73 | 206 | 7.0 | 10.0 | 0.00 | 0.00 | 0.00 | 35 | 1013.8 |
| 20260901005000 | 73 | 200 | 7.0 | 11.0 | 0.00 | 0.00 | 0.00 | 39 | 1013.8 |
| 20260901004500 | 73 | 215 | 7.0 | 11.0 | 0.00 | 0.00 | 0.00 | 32 | 1013.8 |
| 20260901004000 | 74 | 221 | 7.0 | 10.0 | 0.00 | 0.00 | 0.00 | 30 | 1013.8 |
| 20260901003500 | 73 | 203 | 7.0 | 10.0 | 0.00 | 0.00 | 0.00 | 34 | 1013.9 |
| 20260901002959 | 73 | 203 | 7.0 | 9.0 | 0.00 | 0.00 | 0.00 | 27 | 1013.8 |
| 20260901002506 | 72 | 216 | 7.0 | 10.0 | 0.00 | 0.00 | 0.00 | 39 | 1013.9 |
| 20260901002501 | 72 | 232 | 7.0 | 9.0 | 0.00 | 0.00 | 0.00 | 40 | 1013.8 |
| 20260901001500 | 72 | 219 | 7.0 | 10.0 | 0.00 | 0.00 | 0.00 | 49 | 1013.9 |
| 20260901000959 | 72 | 214 | 8.0 | 11.0 | 0.00 | 0.00 | 0.00 | 43 | 1013.9 |
| 20260901000505 | 73 | 198 | 7.0 | 11.0 | 0.00 | 0.00 | 0.00 | 37 | 1014.0 |
| 20260901000500 | 73 | 216 | 8.0 | 11.0 | 0.00 | 0.00 | 0.00 | 52 | 1014.0 |
| 20260901000108 | 73 | 213 | 7.0 | 11.0 | 0.00 | 0.00 | 0.00 | 43 | 1014.0 |
| 20260831234959 | 73 | 216 | 7.0 | 11.0 | 0.00 | 0.00 | 0.00 | 53 | 1013.9 |
| 20260831234459 | 74 | 234 | 7.0 | 10.0 | 0.00 | 0.00 | 0.00 | 59 | 1013.9 |
| 20260831234000 | 74 | 188 | 6.0 | 10.0 | 0.00 | 0.00 | 0.00 | 48 | 1014.0 |
| 20260831233505 | 74 | 216 | 6.0 | 10.0 | 0.00 | 0.00 | 0.00 | 51 | 1014.0 |
| 20260831233500 | 74 | 202 | 6.0 | 10.0 | 0.00 | 0.00 | 0.00 | 51 | 1014.0 |
| 20260831232500 | 74 | 177 | 6.0 | 10.0 | 0.00 | 0.00 | 0.00 | 56 | 1014.0 |
| 20260831232000 | 74 | 189 | 6.0 | 10.0 | 0.00 | 0.00 | 0.00 | 50 | 1014.0 |
| 20260831231500 | 74 | 196 | 6.0 | 10.0 | 0.00 | 0.00 | 0.00 | 50 | 1014.0 |
| 20260831231003 | 74 | 185 | 6.0 | 10.0 | 0.00 | 0.00 | 0.00 | 58 | 1014.0 |
| 20260831230959 | 74 | 171 | 6.0 | 9.0 | 0.00 | 0.00 | 0.00 | 55 | 1014.1 |
| 20260831225957 | 73 | 183 | 6.0 | 9.0 | 0.00 | 0.00 | 0.00 | 45 | 1014.0 |
| 20260831225457 | 74 | 184 | 5.0 | 10.0 | 0.00 | 0.00 | 0.00 | 60 | 1014.1 |
| 20260831225000 | 74 | 167 | 6.0 | 10.0 | 0.00 | 0.00 | 0.00 | 60 | 1014.1 |
| 20260831224955 | 74 | 180 | 6.0 | 10.0 | 0.00 | 0.00 | 0.00 | 59 | 1014.1 |
| 20260831223955 | 74 | 189 | 6.0 | 10.0 | 0.00 | 0.00 | 0.00 | 68 | 1014.2 |
| 20260831223455 | 75 | 161 | 6.0 | 10.0 | 0.00 | 0.00 | 0.00 | 68 | 1014.1 |
| 20260831222956 | 74 | 168 | 6.0 | 10.0 | 0.00 | 0.00 | 0.00 | 71 | 1014.2 |
| 20260831222456 | 73 | 207 | 6.0 | 10.0 | 0.00 | 0.00 | 0.00 | 69 | 1014.2 |
| 20260831221956 | 73 | 193 | 5.0 | 10.0 | 0.00 | 0.00 | 0.00 | 71 | 1014.3 |
| 20260831221456 | 73 | 166 | 6.0 | 10.0 | 0.00 | 0.00 | 0.00 | 71 | 1014.4 |
| 20260831220955 | 73 | 204 | 6.0 | 10.0 | 0.00 | 0.00 | 0.00 | 70 | 1014.4 |
| 20260831220455 | 72 | 225 | 6.0 | 10.0 | 0.00 | 0.00 | 0.00 | 68 | 1014.5 |
| 20260831215955 | 72 | 211 | 6.0 | 11.0 | 0.00 | 0.00 | 0.00 | 71 | 1014.5 |
| 20260831215500 | 74 | 193 | 7.0 | 11.0 | 0.00 | 0.00 | 0.00 | 70 | 1014.6 |
| 20260831215456 | 73 | 208 | 7.0 | 11.0 | 0.00 | 0.00 | 0.00 | 71 | 1014.6 |
| 20260831214456 | 74 | 190 | 7.0 | 11.0 | 0.00 | 0.00 | 0.00 | 71 | 1014.6 |
| 20260831213956 | 75 | 200 | 7.0 | 11.0 | 0.00 | 0.00 | 0.00 | 70 | 1014.8 |
| 20260831213456 | 75 | 173 | 6.0 | 12.0 | 0.00 | 0.00 | 0.00 | 70 | 1014.6 |
| 20260831212959 | 74 | 178 | 5.0 | 12.0 | 0.00 | 0.00 | 0.00 | 70 | 1014.6 |
| 20260831212955 | 74 | 209 | 4.0 | 8.0 | 0.00 | 0.00 | 0.00 | 66 | 1014.8 |
| 20260831211956 | 74 | 168 | 5.0 | 8.0 | 0.00 | 0.00 | 0.00 | 70 | 1014.6 |
| 20260831211952 | 73 | 180 | 5.0 | 11.0 | 0.00 | 0.00 | 0.00 | 74 | 1014.8 |
| 20260831210952 | 73 | 197 | 6.0 | 11.0 | 0.00 | 0.00 | 0.00 | 75 | 1014.9 |
| 20260831210454 | 72 | 196 | 6.0 | 12.0 | 0.00 | 0.00 | 0.00 | 74 | 1014.9 |
| 20260831210450 | 72 | 210 | 6.0 | 12.0 | 0.00 | 0.00 | 0.00 | 75 | 1014.9 |
| 20260831205449 | 72 | 204 | 5.0 | 11.0 | 0.00 | 0.00 | 0.00 | 75 | 1014.9 |
| 20260831204949 | 72 | 215 | 5.0 | 11.0 | 0.00 | 0.00 | 0.00 | 74 | 1014.9 |
| 20260831204449 | 71 | 232 | 6.0 | 11.0 | 0.00 | 0.00 | 0.00 | 76 | 1014.9 |
| 20260831203947 | 71 | 163 | 6.0 | 10.0 | 0.00 | 0.00 | 0.00 | 76 | 1014.9 |
| 20260831203447 | 72 | 206 | 6.0 | 10.0 | 0.00 | 0.00 | 0.00 | 77 | 1014.9 |
| 20260831202947 | 71 | 192 | 5.0 | 10.0 | 0.00 | 0.00 | 0.00 | 78 | 1015.0 |
| 20260831202447 | 71 | 160 | 5.0 | 10.0 | 0.00 | 0.00 | 0.00 | 79 | 1014.9 |
| 20260831201947 | 72 | 215 | 6.0 | 10.0 | 0.00 | 0.00 | 0.00 | 75 | 1015.0 |
| 20260831201445 | 73 | 174 | 6.0 | 10.0 | 0.00 | 0.00 | 0.00 | 76 | 1015.0 |
| 20260831200945 | 73 | 216 | 6.0 | 11.0 | 0.00 | 0.00 | 0.00 | 77 | 1015.0 |
| 20260831200446 | 73 | 188 | 6.0 | 11.0 | 0.00 | 0.00 | 0.00 | 76 | 1015.0 |
| 20260831195945 | 73 | 177 | 6.0 | 10.0 | 0.00 | 0.00 | 0.00 | 77 | 1015.0 |
| 20260831195446 | 73 | 202 | 6.0 | 10.0 | 0.00 | 0.00 | 0.00 | 77 | 1015.1 |
| 20260831194947 | 73 | 175 | 6.0 | 11.0 | 0.00 | 0.00 | 0.00 | 77 | 1015.1 |
| 20260831194443 | 72 | 202 | 6.0 | 11.0 | 0.00 | 0.00 | 0.00 | 77 | 1015.2 |
| 20260831193943 | 72 | 171 | 6.0 | 10.0 | 0.00 | 0.00 | 0.00 | 75 | 1015.2 |
| 20260831193445 | 72 | 175 | 5.0 | 9.0 | 0.00 | 0.00 | 0.00 | 77 | 1015.2 |
| 20260831192944 | 72 | 209 | 6.0 | 10.0 | 0.00 | 0.00 | 0.00 | 77 | 1015.3 |
| 20260831192444 | 72 | 182 | 6.0 | 10.0 | 0.00 | 0.00 | 0.00 | 77 | 1015.3 |
| 20260831191942 | 72 | 173 | 7.0 | 11.0 | 0.00 | 0.00 | 0.00 | 78 | 1015.3 |
| 20260831191442 | 71 | 194 | 6.0 | 11.0 | 0.00 | 0.00 | 0.00 | 78 | 1015.4 |
| 20260831190942 | 72 | 188 | 5.0 | 9.0 | 0.00 | 0.00 | 0.00 | 77 | 1015.4 |